CW1663 Weather Reports


time (UTC)temp
C
wind
direction
speed
KPH
gust
KPH
rain 1hr
cm
rain 24hr
cm
rain mn
cm
humidity
%
barometer
mb
20260506134304 12 345 8.0 19.3 0.00 0.00 0.00 64 1011.7
20260506133304 13 13 8.0 19.3 0.00 0.00 0.00 63 1011.8
20260506132804 12 347 8.0 16.1 0.00 0.00 0.00 63 1011.8
20260506132307 12 24 8.0 16.1 0.00 0.00 0.00 64 1011.7
20260506125804 12 5 4.8 19.3 0.00 0.00 0.00 63 1011.8
20260506124804 12 337 8.0 19.3 0.00 0.00 0.00 62 1011.6
20260506121804 12 44 6.4 16.1 0.00 0.00 0.00 62 1011.6
20260506121304 12 24 9.7 19.3 0.00 0.00 0.00 65 1011.7
20260506115804 12 336 9.7 19.3 0.00 0.00 0.00 65 1011.7
20260506114804 12 1 9.7 19.3 0.00 0.00 0.00 64 1011.7
20260506114304 12 321 6.4 16.1 0.00 0.00 0.00 63 1011.7
20260506113804 12 32 3.2 14.5 0.00 0.00 0.00 63 1011.7
20260506113304 12 335 8.0 19.3 0.00 0.00 0.00 61 1011.6
20260506111303 11 339 9.7 19.3 0.00 0.00 0.00 64 1011.6
20260506105804 11 329 12.9 20.9 0.00 0.00 0.00 65 1011.6
20260506104804 11 23 9.7 20.9 0.00 0.00 0.00 65 1011.7
20260506103804 11 11 8.0 20.9 0.00 0.00 0.00 67 1011.8
20260506103304 11 27 11.3 20.9 0.00 0.00 0.00 67 1011.7
20260506102305 11 3 11.3 25.7 0.00 0.00 0.00 66 1011.6
20260506100803 11 33 9.7 20.9 0.00 0.00 0.00 68 1011.6
20260506095804 11 337 9.7 16.1 0.00 0.00 0.00 68 1011.6
20260506095305 11 12 9.7 22.5 0.00 0.00 0.00 69 1011.7
20260506094804 11 314 4.8 19.3 0.00 0.00 0.00 69 1011.7
20260506094304 11 39 8.0 19.3 0.00 0.00 0.00 69 1011.8
20260506092804 10 344 11.3 25.7 0.00 0.00 0.00 68 1011.7
20260506092306 11 6 8.0 19.3 0.00 0.00 0.00 70 1011.7
20260506091304 11 20 8.0 19.3 0.00 0.00 0.00 74 1011.7
20260506090304 10 339 8.0 14.5 0.00 0.00 0.00 77 1011.7
20260506085804 9 7 9.7 20.9 0.00 0.00 0.00 77 1011.7
20260506085306 9 23 8.0 19.3 0.00 0.00 0.00 77 1011.5
20260506084304 9 332 8.0 19.3 0.00 0.00 0.00 76 1011.5
20260506083304 10 298 4.8 16.1 0.00 0.00 0.00 78 1011.4
20260506082804 10 19 8.0 16.1 0.00 0.00 0.00 77 1011.4
20260506081304 8 331 9.7 16.1 0.00 0.00 0.00 79 1011.5
20260506080306 8 316 11.3 20.9 0.00 0.00 0.00 78 1011.5
20260506073304 8 345 4.8 14.5 0.00 0.00 0.00 79 1011.4
20260506072306 8 344 11.3 22.5 0.00 0.00 0.00 80 1011.3
20260506070804 8 328 8.0 19.3 0.00 0.00 0.00 82 1011.3
20260506070304 8 336 8.0 14.5 0.00 0.00 0.00 82 1011.2
20260506060804 7 12 4.8 14.5 0.00 0.00 0.00 86 1011.2
20260506060303 7 354 9.7 20.9 0.00 0.00 0.00 87 1011.0
20260506051304 7 16 6.4 19.3 0.00 0.03 0.00 87 1011.0
20260506050304 7 356 8.0 16.1 0.00 0.03 0.00 88 1010.9
20260506043804 7 6 9.7 19.3 0.00 0.03 0.00 88 1010.7
20260506043304 7 356 8.0 19.3 0.00 0.03 0.00 88 1010.6
20260506042804 7 6 6.4 19.3 0.00 0.03 0.00 88 1010.6
20260506041804 7 13 6.4 14.5 0.00 0.03 0.00 88 1010.6
20260506041304 7 349 4.8 14.5 0.00 0.03 0.00 88 1010.5
20260506040804 7 2 4.8 12.9 0.00 0.03 0.00 87 1010.5
20260506040304 7 48 4.8 14.5 0.00 0.03 0.00 87 1010.5
20260506034804 7 357 9.7 19.3 0.00 0.03 0.00 87 1010.5
20260506034304 8 10 4.8 16.1 0.00 0.03 0.00 87 1010.5
20260506033304 8 12 8.0 14.5 0.00 0.03 0.00 87 1010.6
20260506032804 8 356 8.0 14.5 0.00 0.03 0.00 87 1010.6
20260506032305 8 25 8.0 16.1 0.00 0.03 0.00 87 1010.5
20260506031304 8 356 4.8 16.1 0.00 0.03 0.00 86 1010.5
20260506030304 8 355 8.0 16.1 0.00 0.03 0.00 86 1010.6
20260506025305 8 14 6.4 14.5 0.00 0.03 0.00 86 1010.7
20260506024304 8 346 9.7 19.3 0.00 0.03 0.00 86 1010.7
20260506023804 8 354 8.0 19.3 0.00 0.03 0.00 85 1010.7
20260506023304 8 13 8.0 19.3 0.00 0.03 0.00 85 1010.8
20260506022804 8 24 6.4 16.1 0.00 0.03 0.00 85 1010.8
20260506022306 8 17 8.0 19.3 0.00 0.03 0.00 85 1010.8
20260506021304 8 36 9.7 19.3 0.00 0.03 0.00 85 1010.8
20260506020804 8 21 8.0 19.3 0.00 0.03 0.00 85 1010.8
20260506020304 8 29 6.4 19.3 0.00 0.03 0.00 85 1010.8
20260506015306 8 30 8.0 16.1 0.00 0.03 0.00 84 1010.8
20260506014804 8 27 9.7 19.3 0.00 0.03 0.00 84 1010.8
20260506014304 8 14 8.0 16.1 0.00 0.03 0.00 84 1010.9
20260506013804 8 11 9.7 19.3 0.00 0.03 0.00 84 1010.9
20260506013304 8 36 11.3 20.9 0.00 0.03 0.00 84 1010.9
20260506012804 8 21 9.7 19.3 0.00 0.03 0.00 84 1010.9
20260506012307 8 42 11.3 20.9 0.00 0.03 0.00 84 1010.9
20260506010304 9 36 11.3 20.9 0.00 0.03 0.00 85 1011.0
20260506005305 9 26 9.7 22.5 0.00 0.03 0.00 86 1011.0
20260506004805 9 10 8.0 19.3 0.00 0.03 0.00 87 1011.0
20260506002804 9 48 8.0 19.3 0.00 0.03 0.00 86 1011.1
20260506002306 9 17 8.0 14.5 0.00 0.03 0.00 86 1011.2
20260506001804 9 12 8.0 16.1 0.00 0.03 0.00 86 1011.2
20260505233304 10 31 4.8 14.5 0.00 0.03 0.00 83 1011.3
20260505232804 10 34 8.0 19.3 0.00 0.03 0.00 83 1011.3
20260505231804 10 18 9.7 16.1 0.00 0.03 0.00 82 1011.3
20260505225306 10 42 6.4 11.3 0.00 0.03 0.03 81 1011.4
20260505224804 10 38 8.0 14.5 0.00 0.03 0.03 81 1011.4
20260505224303 10 36 8.0 14.5 0.00 0.03 0.03 81 1011.4
20260505223804 10 23 8.0 19.3 0.00 0.03 0.03 80 1011.4
20260505223304 10 47 6.4 19.3 0.00 0.03 0.03 80 1011.4
20260505222804 10 26 6.4 14.5 0.00 0.03 0.03 80 1011.4
20260505222305 10 32 8.0 16.1 0.00 0.03 0.03 79 1011.4
20260505221803 10 37 6.4 14.5 0.00 0.03 0.03 79 1011.4
20260505220804 10 39 4.8 14.5 0.00 0.03 0.03 78 1011.5
20260505220303 10 24 8.0 19.3 0.00 0.03 0.03 78 1011.4
20260505215804 10 53 3.2 16.1 0.00 0.03 0.03 77 1011.4
20260505214804 10 45 4.8 14.5 0.00 0.03 0.03 77 1011.3
20260505213804 10 31 8.0 14.5 0.00 0.03 0.03 75 1011.3
20260505212804 10 7 3.2 12.9 0.00 0.03 0.03 75 1011.3
20260505212305 10 51 3.2 11.3 0.00 0.03 0.03 75 1011.4
20260505211804 10 25 4.8 11.3 0.00 0.03 0.03 74 1011.4
20260505211304 10 46 3.2 12.9 0.00 0.03 0.03 74 1011.4
20260505205305 10 37 6.4 19.3 0.00 0.03 0.03 72 1011.3
20260505204804 10 51 8.0 16.1 0.00 0.03 0.03 72 1011.3
20260505204304 11 20 4.8 12.9 0.00 0.03 0.03 72 1011.4
20260505203804 11 6 4.8 11.3 0.00 0.03 0.03 72 1011.4
20260505203304 11 12 4.8 9.7 0.00 0.03 0.03 71 1011.3
20260505202804 11 40 3.2 8.0 0.00 0.03 0.03 71 1011.3
20260505202306 11 26 4.8 9.7 0.00 0.03 0.03 71 1011.2
20260505201804 11 38 6.4 12.9 0.00 0.03 0.03 70 1011.2
20260505201304 11 39 4.8 11.3 0.00 0.03 0.03 70 1011.0
20260505200804 11 69 6.4 11.3 0.00 0.03 0.03 70 1011.0
20260505200304 11 39 4.8 14.5 0.00 0.03 0.03 71 1011.0
20260505195305 11 52 4.8 12.9 0.00 0.03 0.03 72 1010.8
20260505194304 11 67 3.2 4.8 0.00 0.03 0.03 73 1010.7
20260505193304 11 34 4.8 14.5 0.00 0.03 0.03 72 1010.7
20260505192804 11 26 3.2 8.0 0.00 0.03 0.03 73 1010.7
20260505191804 12 42 3.2 9.7 0.00 0.03 0.03 72 1010.6
20260505190804 12 63 4.8 11.3 0.00 0.03 0.03 71 1010.5
20260505190303 12 62 3.2 9.7 0.00 0.03 0.03 70 1010.5
20260505185804 12 52 1.6 4.8 0.00 0.03 0.03 70 1010.5
20260505180304 13 52 4.8 11.3 0.00 0.03 0.03 67 1010.3
20260505175305 13 48 4.8 9.7 0.00 0.03 0.03 67 1010.4
20260505174804 13 17 4.8 12.9 0.00 0.03 0.03 66 1010.4
20260505174304 13 68 3.2 12.9 0.00 0.03 0.03 66 1010.4
20260505171803 14 37 6.4 14.5 0.00 0.03 0.03 64 1010.4
20260505171304 14 22 4.8 11.3 0.00 0.03 0.03 64 1010.5
20260505165306 14 88 3.2 4.8 0.00 0.03 0.03 63 1010.4
20260505163804 14 65 4.8 9.7 0.00 0.03 0.03 62 1010.5
20260505161804 14 79 4.8 14.5 0.00 0.03 0.03 60 1010.5
20260505152804 15 24 6.4 14.5 0.00 0.03 0.03 58 1010.6